TimeCST,TemperatureF,Dew PointF,Humidity,Sea Level PressureIn,VisibilityMPH,Wind Direction,Wind SpeedMPH,Gust SpeedMPH,PrecipitationIn,Events,Conditions,WindDirDegrees,DateUTC
12:34 AM,53.6,46.4,77,30.27,10.0,SSE,11.5,-,N/A,,Scattered Clouds,160,2012-11-17 06:34:00
12:53 AM,53.1,46.0,77,30.20,10.0,SSE,6.9,-,N/A,,Partly Cloudy,150,2012-11-17 06:53:00
1:53 AM,53.1,46.0,77,30.19,10.0,SSE,5.8,-,N/A,,Scattered Clouds,160,2012-11-17 07:53:00
2:04 AM,51.8,46.4,82,30.26,10.0,SSE,8.1,-,N/A,,Mostly Cloudy,150,2012-11-17 08:04:00
2:53 AM,53.1,45.0,74,30.19,10.0,SSE,9.2,-,N/A,,Overcast,160,2012-11-17 08:53:00
3:53 AM,53.1,44.1,71,30.19,10.0,SSE,8.1,-,N/A,,Overcast,160,2012-11-17 09:53:00
4:53 AM,51.1,42.1,71,30.17,10.0,SSE,9.2,-,N/A,,Overcast,150,2012-11-17 10:53:00
5:20 AM,50.0,42.8,76,30.24,10.0,SE,6.9,-,N/A,,Scattered Clouds,130,2012-11-17 11:20:00
5:39 AM,50.0,42.8,76,30.24,10.0,SE,6.9,-,N/A,,Mostly Cloudy,140,2012-11-17 11:39:00
5:53 AM,51.1,41.0,68,30.18,10.0,SE,8.1,-,N/A,,Overcast,130,2012-11-17 11:53:00
6:53 AM,50.0,39.9,68,30.19,10.0,SE,6.9,-,N/A,,Mostly Cloudy,140,2012-11-17 12:53:00
7:53 AM,48.9,39.9,71,30.20,10.0,SE,8.1,-,N/A,,Overcast,140,2012-11-17 13:53:00
8:53 AM,51.1,39.9,66,30.23,10.0,SE,6.9,-,N/A,,Overcast,130,2012-11-17 14:53:00
9:53 AM,55.0,42.1,62,30.22,10.0,SSE,9.2,-,N/A,,Mostly Cloudy,160,2012-11-17 15:53:00
10:01 AM,55.4,42.8,63,30.29,10.0,SSE,11.5,-,N/A,,Partly Cloudy,160,2012-11-17 16:01:00
10:53 AM,59.0,44.1,58,30.22,10.0,South,13.8,-,N/A,,Clear,170,2012-11-17 16:53:00
11:53 AM,61.0,45.0,56,30.20,10.0,South,9.2,20.7,N/A,,Clear,190,2012-11-17 17:53:00
12:53 PM,63.0,45.0,52,30.16,10.0,South,13.8,17.3,N/A,,Clear,170,2012-11-17 18:53:00
1:53 PM,64.9,44.1,47,30.14,10.0,SSE,10.4,-,N/A,,Clear,160,2012-11-17 19:53:00
2:53 PM,64.9,45.0,48,30.12,10.0,South,10.4,-,N/A,,Clear,180,2012-11-17 20:53:00
3:53 PM,64.9,44.1,47,30.11,10.0,SSE,12.7,-,N/A,,Clear,160,2012-11-17 21:53:00
4:53 PM,64.0,43.0,46,30.12,10.0,SE,15.0,-,N/A,,Clear,140,2012-11-17 22:53:00
5:53 PM,62.1,43.0,50,30.12,10.0,SSE,11.5,-,N/A,,Clear,150,2012-11-17 23:53:00
6:53 PM,61.0,43.0,52,30.13,10.0,SSE,9.2,-,N/A,,Partly Cloudy,150,2012-11-18 00:53:00
7:53 PM,61.0,43.0,52,30.13,10.0,SSE,16.1,-,N/A,,Clear,160,2012-11-18 01:53:00
8:53 PM,60.1,43.0,53,30.14,10.0,SSE,13.8,20.7,N/A,,Mostly Cloudy,160,2012-11-18 02:53:00
9:53 PM,57.9,43.0,58,30.12,10.0,SSE,13.8,-,N/A,,Mostly Cloudy,160,2012-11-18 03:53:00
10:53 PM,57.0,44.1,62,30.10,10.0,South,17.3,24.2,N/A,,Scattered Clouds,170,2012-11-18 04:53:00
11:53 PM,55.9,44.1,64,30.09,10.0,South,11.5,-,N/A,,Clear,170,2012-11-18 05:53:00